QPF
0.00 0.00 0.00 0.00 0.00 0.00 0.00 0.00 0.00 0.00 0.00 0.00 0.00 0.00 0.00 0.00 0.00 0.00 0.00 0.00 0.00 0.00 0.00 0.00 0.00 0.00 0.00 0.00 0.00 0.00 0.00 0.00 0.00 0.00 0.00 0.00 0.00 0.00 0.00 0.00 0.00 0.00 0.00
0.00 0.00 0.00 0.00 0.00 0.00 0.00 0.00 0.00 0.00 0.00 0.00 0.00 0.00 0.00 0.00 0.00 0.00 0.00 0.00 0.00 0.00 0.00 0.00 0.00 0.00 0.00 0.00 0.00 0.00 0.00 0.00 0.00 0.00 0.00 0.00 0.00 0.00 0.00 0.00 0.00 0.00 0.00
0.00 0.00 0.00 0.00 0.00 0.00 0.00 0.00 0.00 0.00 0.00 0.00 0.00 0.00 0.00 0.00 0.00 0.00 0.00 0.00 0.00 0.00 0.00 0.00 0.00 0.00 0.00 0.00 0.00 0.00 0.00 0.00 0.00 0.00 0.00 0.00 0.00 0.00 0.00 0.00 0.00 0.00 0.00
0.00 0.00 0.00 0.00 0.00 0.00 0.00 0.00 0.00 0.00 0.00 0.00 0.00 0.00 0.00 0.00 0.00 0.00 0.00 0.00 0.00 0.00 0.00 0.00 0.00 0.00 0.00 0.00 0.00 0.00 0.00 0.00 0.01 0.01 0.01 0.01 0.01 0.01 0.01 0.01 0.01 0.01 0.00
0.00 0.00 0.00 0.00 0.00 0.00 0.00 0.00 0.00 0.00 0.00 0.00 0.00 0.00 0.00 0.00 0.00 0.00 0.00 0.00 0.00 0.00 0.00 0.00 0.00 0.00 0.00 0.00 0.00 0.00 0.01 0.02 0.02 0.03 0.03 0.02 0.02 0.02 0.02 0.02 0.02 0.01 0.01
0.00 0.00 0.00 0.00 0.00 0.00 0.00 0.00 0.00 0.00 0.00 0.00 0.00 0.00 0.00 0.00 0.00 0.00 0.00 0.00 0.00 0.00 0.00 0.00 0.00 0.00 0.00 0.00 0.00 0.01 0.01 0.02 0.03 0.04 0.04 0.04 0.03 0.03 0.03 0.03 0.03 0.03 0.02
0.00 0.00 0.00 0.00 0.00 0.00 0.00 0.00 0.00 0.00 0.00 0.00 0.00 0.00 0.00 0.00 0.00 0.00 0.00 0.00 0.00 0.00 0.00 0.00 0.00 0.00 0.00 0.00 0.00 0.00 0.00 0.01 0.02 0.04 0.04 0.03 0.02 0.02 0.03 0.04 0.05 0.06 0.05
0.00 0.00 0.00 0.00 0.00 0.00 0.00 0.00 0.00 0.00 0.00 0.00 0.00 0.00 0.00 0.00 0.00 0.00 0.00 0.00 0.00 0.00 0.00 0.00 0.00 0.00 0.00 0.00 0.01 0.01 0.01 0.01 0.01 0.02 0.02 0.02 0.03 0.04 0.06 0.10 0.12 0.10 0.06
0.00 0.00 0.00 0.00 0.00 0.00 0.00 0.00 0.00 0.00 0.00 0.00 0.00 0.00 0.00 0.00 0.00 0.00 0.00 0.00 0.00 0.00 0.00 0.00 0.00 0.00 0.00 0.01 0.02 0.02 0.02 0.01 0.01 0.03 0.04 0.05 0.06 0.06 0.07 0.08 0.08 0.07 0.05
0.00 0.00 0.00 0.00 0.00 0.00 0.00 0.00 0.00 0.00 0.00 0.00 0.00 0.00 0.00 0.00 0.00 0.00 0.00 0.00 0.00 0.00 0.00 0.00 0.00 0.01 0.01 0.02 0.03 0.04 0.04 0.03 0.03 0.03 0.03 0.03 0.02 0.01 0.02 0.02 0.04 0.06 0.05
0.00 0.00 0.00 0.00 0.00 0.00 0.00 0.00 0.00 0.00 0.00 0.00 0.00 0.00 0.00 0.00 0.00 0.00 0.00 0.00 0.00 0.01 0.01 0.01 0.00 0.01 0.02 0.02 0.04 0.04 0.04 0.04 0.05 0.05 0.03 0.02 0.01 0.01 0.01 0.01 0.02 0.06 0.08
0.00 0.00 0.00 0.00 0.00 0.00 0.00 0.00 0.00 0.00 0.00 0.00 0.00 0.00 0.00 0.00 0.00 0.00 0.00 0.00 0.01 0.01 0.01 0.01 0.01 0.01 0.02 0.04 0.04 0.03 0.04 0.04 0.03 0.02 0.01 0.01 0.01 0.01 0.01 0.01 0.01 0.02 0.04
0.00 0.00 0.00 0.00 0.00 0.00 0.00 0.00 0.00 0.00 0.00 0.00 0.00 0.00 0.00 0.00 0.00 0.00 0.00 0.00 0.01 0.01 0.01 0.01 0.02 0.02 0.02 0.02 0.01 0.02 0.02 0.02 0.01 0.01 0.01 0.01 0.01 0.01 0.01 0.01 0.01 0.01 0.01
0.00 0.00 0.00 0.00 0.00 0.00 0.00 0.00 0.00 0.00 0.00 0.00 0.00 0.00 0.00 0.00 0.00 0.00 0.01 0.01 0.01 0.01 0.01 0.02 0.02 0.02 0.02 0.01 0.01 0.01 0.01 0.01 0.01 0.02 0.02 0.01 0.01 0.01 0.01 0.02 0.02 0.02 0.02
0.00 0.00 0.00 0.00 0.00 0.00 0.00 0.00 0.00 0.00 0.00 0.00 0.00 0.00 0.00 0.00 0.00 0.01 0.02 0.02 0.02 0.02 0.04 0.04 0.03 0.02 0.02 0.01 0.01 0.01 0.01 0.01 0.01 0.01 0.02 0.02 0.01 0.01 0.01 0.01 0.02 0.02 0.02
0.00 0.00 0.00 0.00 0.00 0.00 0.00 0.00 0.00 0.00 0.00 0.00 0.00 0.00 0.00 0.00 0.01 0.01 0.01 0.02 0.02 0.03 0.04 0.04 0.02 0.02 0.01 0.01 0.01 0.01 0.01 0.01 0.01 0.01 0.01 0.02 0.02 0.02 0.02 0.01 0.02 0.02 0.02
0.00 0.00 0.00 0.00 0.00 0.00 0.00 0.00 0.00 0.00 0.00 0.00 0.00 0.00 0.00 0.00 0.01 0.01 0.01 0.02 0.02 0.02 0.02 0.02 0.01 0.01 0.01 0.01 0.01 0.01 0.01 0.01 0.01 0.01 0.02 0.02 0.02 0.02 0.02 0.02 0.02 0.02 0.01
0.00 0.00 0.00 0.00 0.00 0.00 0.00 0.00 0.00 0.00 0.00 0.00 0.00 0.00 0.00 0.00 0.01 0.01 0.01 0.02 0.01 0.01 0.01 0.01 0.01 0.01 0.01 0.01 0.01 0.01 0.01 0.01 0.01 0.01 0.02 0.02 0.02 0.03 0.02 0.02 0.01 0.02 0.01
0.00 0.00 0.00 0.00 0.00 0.00 0.00 0.00 0.00 0.00 0.00 0.00 0.00 0.00 0.00 0.00 0.01 0.01 0.01 0.01 0.01 0.01 0.01 0.01 0.01 0.01 0.01 0.01 0.01 0.01 0.01 0.01 0.01 0.02 0.02 0.02 0.02 0.03 0.02 0.01 0.01 0.01 0.02
0.00 0.00 0.00 0.00 0.00 0.00 0.00 0.00 0.00 0.00 0.00 0.00 0.00 0.00 0.00 0.01 0.01 0.01 0.01 0.01 0.01 0.01 0.01 0.01 0.01 0.01 0.01 0.01 0.01 0.01 0.01 0.01 0.01 0.01 0.02 0.02 0.02 0.02 0.02 0.02 0.01 0.02 0.01
0.00 0.00 0.00 0.00 0.00 0.00 0.00 0.00 0.00 0.01 0.01 0.00 0.00 0.00 0.01 0.02 0.02 0.01 0.01 0.01 0.01 0.01 0.01 0.01 0.01 0.01 0.01 0.01 0.01 0.01 0.02 0.01 0.01 0.01 0.02 0.02 0.02 0.02 0.02 0.02 0.02 0.01 0.01
0.00 0.00 0.00 0.00 0.00 0.00 0.00 0.01 0.01 0.01 0.01 0.01 0.00 0.00 0.01 0.01 0.01 0.01 0.01 0.01 0.01 0.01 0.01 0.01 0.01 0.01 0.01 0.01 0.01 0.02 0.02 0.01 0.01 0.01 0.02 0.02 0.02 0.02 0.02 0.02 0.02 0.01 0.01
0.00 0.00 0.00 0.00 0.00 0.00 0.00 0.00 0.01 0.01 0.01 0.01 0.01 0.00 0.00 0.01 0.01 0.01 0.01 0.01 0.01 0.01 0.01 0.01 0.01 0.01 0.01 0.01 0.01 0.02 0.02 0.02 0.01 0.02 0.02 0.02 0.02 0.02 0.02 0.02 0.02 0.01 0.01
0.00 0.00 0.00 0.00 0.00 0.00 0.00 0.00 0.00 0.00 0.00 0.00 0.00 0.00 0.00 0.01 0.01 0.01 0.01 0.01 0.01 0.01 0.01 0.01 0.01 0.01 0.01 0.01 0.01 0.01 0.01 0.01 0.02 0.02 0.02 0.03 0.02 0.02 0.02 0.02 0.02 0.01 0.01
0.00 0.00 0.00 0.00 0.00 0.00 0.00 0.00 0.00 0.00 0.00 0.00 0.00 0.00 0.00 0.00 0.01 0.01 0.00 0.01 0.01 0.01 0.01 0.01 0.01 0.01 0.00 0.00 0.01 0.01 0.01 0.01 0.03 0.05 0.06 0.05 0.03 0.02 0.02 0.02 0.02 0.01 0.01
0.00 0.00 0.00 0.00 0.00 0.00 0.00 0.00 0.00 0.00 0.00 0.00 0.00 0.00 0.00 0.01 0.01 0.01 0.01 0.01 0.01 0.01 0.01 0.01 0.00 0.00 0.00 0.00 0.00 0.00 0.01 0.02 0.02 0.04 0.06 0.07 0.05 0.03 0.03 0.02 0.02 0.02 0.01
MSLP
1015.01 1015.58 1016.20 1016.85 1017.51 1018.16 1018.80 1019.42 1020.02 1020.58 1021.10 1021.57 1021.99 1022.34 1022.62 1022.82 1022.96 1023.03 1023.06 1023.05 1023.02 1022.98 1022.92 1022.84 1022.73 1022.58 1022.38 1022.12 1021.79 1021.39 1020.94 1020.46 1019.94 1019.41 1018.88 1018.35 1017.83 1017.32 1016.81 1016.30 1015.78 1015.26 1014.72
1014.85 1015.44 1016.06 1016.70 1017.35 1017.99 1018.62 1019.23 1019.81 1020.36 1020.87 1021.33 1021.74 1022.08 1022.35 1022.53 1022.64 1022.69 1022.68 1022.63 1022.55 1022.46 1022.35 1022.24 1022.10 1021.93 1021.73 1021.48 1021.19 1020.84 1020.44 1020.00 1019.53 1019.04 1018.52 1018.00 1017.46 1016.90 1016.34 1015.76 1015.17 1014.56 1013.96
1014.60 1015.21 1015.84 1016.48 1017.11 1017.74 1018.35 1018.94 1019.51 1020.05 1020.56 1021.01 1021.42 1021.75 1022.01 1022.18 1022.28 1022.30 1022.26 1022.17 1022.05 1021.92 1021.76 1021.60 1021.44 1021.25 1021.05 1020.81 1020.54 1020.23 1019.88 1019.50 1019.08 1018.63 1018.14 1017.63 1017.08 1016.51 1015.90 1015.26 1014.60 1013.92 1013.23
1014.24 1014.87 1015.50 1016.14 1016.76 1017.37 1017.97 1018.55 1019.11 1019.64 1020.15 1020.61 1021.01 1021.35 1021.60 1021.77 1021.86 1021.87 1021.81 1021.70 1021.55 1021.37 1021.18 1020.99 1020.79 1020.58 1020.37 1020.14 1019.89 1019.61 1019.31 1018.97 1018.59 1018.18 1017.73 1017.24 1016.70 1016.11 1015.47 1014.79 1014.08 1013.33 1012.58
1013.79 1014.43 1015.07 1015.70 1016.31 1016.91 1017.49 1018.07 1018.62 1019.16 1019.66 1020.13 1020.54 1020.88 1021.14 1021.32 1021.40 1021.41 1021.34 1021.21 1021.03 1020.83 1020.62 1020.40 1020.17 1019.95 1019.72 1019.49 1019.25 1018.99 1018.71 1018.40 1018.07 1017.69 1017.27 1016.81 1016.28 1015.70 1015.06 1014.36 1013.61 1012.82 1012.02
1013.29 1013.94 1014.58 1015.20 1015.80 1016.39 1016.97 1017.53 1018.09 1018.63 1019.14 1019.62 1020.04 1020.38 1020.65 1020.83 1020.92 1020.92 1020.84 1020.70 1020.51 1020.30 1020.06 1019.82 1019.58 1019.34 1019.09 1018.85 1018.61 1018.35 1018.08 1017.80 1017.48 1017.14 1016.75 1016.32 1015.82 1015.26 1014.63 1013.94 1013.19 1012.39 1011.57
1012.81 1013.45 1014.08 1014.69 1015.29 1015.87 1016.45 1017.01 1017.57 1018.12 1018.64 1019.12 1019.54 1019.89 1020.15 1020.33 1020.41 1020.40 1020.32 1020.17 1019.97 1019.74 1019.49 1019.24 1018.98 1018.72 1018.46 1018.21 1017.95 1017.69 1017.42 1017.14 1016.84 1016.52 1016.16 1015.76 1015.30 1014.78 1014.19 1013.53 1012.80 1012.02 1011.20
1012.39 1013.03 1013.64 1014.25 1014.84 1015.42 1015.99 1016.56 1017.12 1017.67 1018.19 1018.66 1019.08 1019.42 1019.67 1019.83 1019.89 1019.87 1019.77 1019.60 1019.39 1019.15 1018.89 1018.62 1018.34 1018.07 1017.80 1017.53 1017.26 1016.99 1016.71 1016.43 1016.14 1015.84 1015.50 1015.14 1014.72 1014.26 1013.72 1013.12 1012.44 1011.71 1010.93
1012.08 1012.70 1013.31 1013.90 1014.49 1015.06 1015.64 1016.21 1016.76 1017.30 1017.81 1018.27 1018.66 1018.98 1019.20 1019.33 1019.36 1019.31 1019.19 1019.00 1018.77 1018.51 1018.24 1017.95 1017.67 1017.38 1017.10 1016.82 1016.54 1016.25 1015.97 1015.69 1015.40 1015.11 1014.81 1014.48 1014.12 1013.71 1013.24 1012.71 1012.11 1011.44 1010.71
1011.88 1012.49 1013.08 1013.67 1014.24 1014.82 1015.39 1015.95 1016.49 1017.01 1017.50 1017.93 1018.29 1018.56 1018.75 1018.84 1018.83 1018.75 1018.59 1018.37 1018.12 1017.84 1017.55 1017.26 1016.96 1016.67 1016.38 1016.09 1015.80 1015.51 1015.23 1014.95 1014.67 1014.39 1014.11 1013.82 1013.51 1013.16 1012.76 1012.30 1011.78 1011.19 1010.54
1011.79 1012.38 1012.96 1013.53 1014.10 1014.66 1015.21 1015.75 1016.28 1016.77 1017.22 1017.61 1017.92 1018.16 1018.30 1018.34 1018.30 1018.17 1017.98 1017.73 1017.46 1017.16 1016.86 1016.56 1016.26 1015.96 1015.67 1015.38 1015.09 1014.81 1014.52 1014.25 1013.97 1013.71 1013.45 1013.19 1012.92 1012.62 1012.29 1011.91 1011.47 1010.96 1010.40
1011.79 1012.36 1012.92 1013.48 1014.02 1014.56 1015.09 1015.59 1016.08 1016.53 1016.93 1017.28 1017.55 1017.73 1017.83 1017.84 1017.75 1017.60 1017.38 1017.11 1016.81 1016.50 1016.19 1015.88 1015.58 1015.29 1015.00 1014.72 1014.44 1014.17 1013.89 1013.62 1013.36 1013.11 1012.86 1012.62 1012.38 1012.12 1011.84 1011.52 1011.16 1010.74 1010.25
1011.86 1012.40 1012.94 1013.47 1013.99 1014.49 1014.97 1015.44 1015.87 1016.27 1016.62 1016.91 1017.13 1017.28 1017.34 1017.31 1017.20 1017.03 1016.79 1016.51 1016.20 1015.88 1015.57 1015.26 1014.97 1014.68 1014.41 1014.14 1013.88 1013.62 1013.36 1013.10 1012.84 1012.60 1012.36 1012.13 1011.90 1011.67 1011.43 1011.16 1010.85 1010.50 1010.10
1011.98 1012.50 1013.01 1013.50 1013.98 1014.43 1014.86 1015.26 1015.63 1015.96 1016.26 1016.50 1016.68 1016.79 1016.82 1016.77 1016.65 1016.46 1016.22 1015.94 1015.63 1015.32 1015.01 1014.71 1014.42 1014.15 1013.90 1013.65 1013.41 1013.16 1012.92 1012.67 1012.43 1012.18 1011.94 1011.71 1011.49 1011.26 1011.04 1010.80 1010.53 1010.24 1009.91
1012.16 1012.64 1013.11 1013.56 1013.98 1014.37 1014.73 1015.06 1015.36 1015.63 1015.86 1016.04 1016.18 1016.26 1016.27 1016.21 1016.09 1015.91 1015.67 1015.39 1015.10 1014.79 1014.49 1014.20 1013.92 1013.67 1013.44 1013.22 1013.00 1012.78 1012.56 1012.32 1012.08 1011.84 1011.60 1011.35 1011.12 1010.89 1010.66 1010.44 1010.20 1009.96 1009.69
1012.39 1012.84 1013.26 1013.66 1014.01 1014.33 1014.61 1014.86 1015.08 1015.27 1015.43 1015.56 1015.65 1015.70 1015.69 1015.63 1015.51 1015.33 1015.11 1014.85 1014.56 1014.27 1013.98 1013.70 1013.45 1013.22 1013.01 1012.81 1012.62 1012.43 1012.22 1012.01 1011.78 1011.53 1011.28 1011.03 1010.77 1010.53 1010.30 1010.07 1009.86 1009.65 1009.43
1012.65 1013.06 1013.44 1013.77 1014.05 1014.29 1014.49 1014.65 1014.78 1014.89 1014.98 1015.05 1015.10 1015.11 1015.09 1015.02 1014.90 1014.73 1014.52 1014.27 1014.00 1013.72 1013.44 1013.18 1012.95 1012.74 1012.55 1012.38 1012.22 1012.06 1011.89 1011.69 1011.47 1011.23 1010.98 1010.71 1010.44 1010.18 1009.93 1009.71 1009.51 1009.32 1009.15
1012.93 1013.29 1013.61 1013.87 1014.08 1014.24 1014.35 1014.43 1014.47 1014.50 1014.52 1014.53 1014.52 1014.50 1014.45 1014.37 1014.24 1014.08 1013.88 1013.64 1013.38 1013.11 1012.85 1012.60 1012.39 1012.20 1012.04 1011.91 1011.78 1011.65 1011.51 1011.34 1011.14 1010.91 1010.65 1010.38 1010.10 1009.83 1009.57 1009.35 1009.15 1008.99 1008.85
1013.18 1013.48 1013.73 1013.93 1014.06 1014.14 1014.16 1014.15 1014.12 1014.07 1014.01 1013.96 1013.91 1013.84 1013.76 1013.66 1013.53 1013.36 1013.16 1012.93 1012.68 1012.43 1012.18 1011.96 1011.76 1011.60 1011.47 1011.37 1011.28 1011.19 1011.08 1010.94 1010.76 1010.55 1010.30 1010.03 1009.75 1009.47 1009.21 1008.99 1008.80 1008.66 1008.55
1013.34 1013.57 1013.76 1013.88 1013.93 1013.93 1013.88 1013.79 1013.68 1013.56 1013.45 1013.34 1013.23 1013.13 1013.03 1012.91 1012.76 1012.59 1012.39 1012.16 1011.92 1011.68 1011.46 1011.25 1011.08 1010.95 1010.85 1010.78 1010.72 1010.67 1010.59 1010.48 1010.34 1010.15 1009.91 1009.65 1009.37 1009.10 1008.84 1008.63 1008.45 1008.33 1008.25
1013.37 1013.52 1013.63 1013.68 1013.66 1013.58 1013.46 1013.31 1013.14 1012.96 1012.80 1012.64 1012.50 1012.36 1012.23 1012.10 1011.94 1011.77 1011.57 1011.36 1011.13 1010.91 1010.70 1010.52 1010.37 1010.26 1010.20 1010.16 1010.13 1010.11 1010.06 1009.98 1009.86 1009.70 1009.48 1009.24 1008.97 1008.71 1008.46 1008.25 1008.09 1007.98 1007.94
1013.23 1013.30 1013.32 1013.30 1013.21 1013.07 1012.89 1012.69 1012.47 1012.26 1012.05 1011.86 1011.70 1011.55 1011.40 1011.26 1011.10 1010.93 1010.75 1010.55 1010.34 1010.14 1009.95 1009.79 1009.67 1009.59 1009.54 1009.53 1009.52 1009.52 1009.50 1009.44 1009.35 1009.20 1009.00 1008.77 1008.52 1008.27 1008.04 1007.84 1007.69 1007.60 1007.57
1012.92 1012.90 1012.85 1012.75 1012.60 1012.40 1012.18 1011.94 1011.70 1011.46 1011.24 1011.04 1010.86 1010.71 1010.56 1010.42 1010.28 1010.12 1009.95 1009.77 1009.59 1009.41 1009.25 1009.11 1009.01 1008.94 1008.91 1008.91 1008.92 1008.92 1008.91 1008.86 1008.77 1008.64 1008.45 1008.24 1008.00 1007.76 1007.54 1007.36 1007.22 1007.15 1007.13
1012.48 1012.38 1012.25 1012.08 1011.87 1011.64 1011.39 1011.13 1010.87 1010.62 1010.40 1010.20 1010.03 1009.88 1009.75 1009.62 1009.49 1009.36 1009.21 1009.05 1008.89 1008.74 1008.60 1008.48 1008.39 1008.33 1008.30 1008.29 1008.29 1008.29 1008.27 1008.22 1008.13 1007.99 1007.81 1007.61 1007.38 1007.15 1006.95 1006.77 1006.65 1006.58 1006.58
1011.96 1011.79 1011.60 1011.37 1011.12 1010.86 1010.59 1010.32 1010.05 1009.81 1009.60 1009.41 1009.25 1009.12 1009.00 1008.89 1008.77 1008.66 1008.53 1008.39 1008.25 1008.12 1007.99 1007.88 1007.79 1007.72 1007.68 1007.65 1007.64 1007.61 1007.56 1007.49 1007.39 1007.24 1007.06 1006.86 1006.64 1006.43 1006.23 1006.07 1005.96 1005.90 1005.89
1011.46 1011.22 1010.97 1010.71 1010.43 1010.14 1009.86 1009.59 1009.33 1009.09 1008.89 1008.71 1008.56 1008.44 1008.32 1008.22 1008.12 1008.01 1007.89 1007.77 1007.64 1007.50 1007.38 1007.26 1007.16 1007.08 1007.01 1006.95 1006.90 1006.84 1006.76 1006.66 1006.53 1006.37 1006.19 1005.98 1005.77 1005.57 1005.38 1005.24 1005.13 1005.08 1005.07
Thickness
5600 5595 5588 5582 5575 5569 5562 5555 5548 5540 5532 5525 5518 5512 5506 5500 5494 5488 5483 5478 5473 5469 5464 5459 5455 5450 5446 5442 5438 5433 5429 5425 5428 5435 5428 5423 5417 5411 5407 5403 5400 5398 5398
5594 5588 5581 5574 5567 5561 5554 5547 5539 5531 5524 5517 5510 5503 5497 5491 5485 5480 5475 5469 5465 5460 5456 5450 5446 5440 5436 5431 5427 5422 5417 5412 5409 5413 5412 5404 5398 5391 5386 5382 5378 5375 5374
5587 5581 5574 5567 5560 5554 5546 5538 5530 5523 5515 5508 5501 5495 5489 5482 5477 5471 5466 5461 5456 5451 5446 5441 5436 5430 5426 5421 5415 5409 5403 5397 5391 5389 5391 5385 5379 5372 5367 5364 5359 5355 5353
5580 5574 5567 5561 5554 5546 5538 5529 5521 5514 5507 5499 5493 5486 5480 5473 5467 5461 5456 5451 5446 5441 5436 5431 5425 5419 5413 5408 5401 5395 5387 5381 5374 5368 5367 5365 5360 5354 5346 5343 5342 5338 5334
5573 5567 5560 5553 5545 5536 5528 5520 5512 5504 5497 5491 5484 5478 5471 5464 5457 5451 5445 5440 5436 5433 5428 5422 5416 5408 5401 5393 5386 5379 5371 5364 5357 5350 5347 5344 5341 5334 5328 5323 5321 5320 5318
5567 5560 5552 5543 5535 5527 5519 5511 5503 5496 5489 5482 5475 5469 5464 5457 5450 5443 5437 5434 5430 5425 5419 5413 5406 5398 5389 5380 5372 5364 5355 5346 5339 5331 5328 5323 5320 5314 5309 5305 5302 5301 5303
5559 5551 5542 5534 5526 5518 5510 5502 5495 5488 5481 5474 5468 5462 5456 5450 5441 5435 5429 5424 5421 5416 5409 5402 5395 5386 5375 5367 5359 5351 5342 5331 5322 5314 5310 5307 5303 5299 5293 5290 5287 5284 5286
5550 5542 5533 5525 5517 5509 5501 5494 5487 5480 5473 5466 5460 5454 5448 5441 5433 5426 5419 5414 5410 5405 5397 5389 5380 5372 5361 5350 5343 5337 5329 5321 5312 5304 5299 5294 5289 5285 5279 5276 5274 5274 5276
5540 5533 5525 5516 5508 5500 5493 5486 5479 5471 5465 5458 5451 5445 5439 5433 5424 5415 5407 5404 5400 5393 5385 5376 5365 5356 5347 5336 5328 5323 5319 5313 5304 5297 5291 5285 5280 5275 5270 5267 5266 5266 5271
5530 5523 5515 5507 5499 5491 5484 5477 5469 5462 5455 5448 5442 5436 5430 5423 5415 5405 5395 5391 5388 5382 5374 5364 5353 5343 5333 5322 5314 5308 5304 5300 5294 5290 5284 5278 5272 5268 5263 5259 5257 5257 5261
5518 5511 5503 5496 5489 5482 5475 5467 5459 5452 5445 5440 5434 5428 5420 5413 5405 5394 5384 5376 5370 5366 5360 5352 5342 5331 5321 5311 5303 5297 5292 5287 5284 5279 5274 5270 5265 5261 5258 5255 5251 5250 5252
5506 5500 5493 5486 5477 5470 5464 5457 5449 5442 5436 5430 5424 5419 5411 5403 5393 5384 5373 5363 5355 5349 5345 5338 5329 5319 5309 5302 5294 5288 5282 5277 5273 5268 5265 5262 5259 5256 5254 5251 5249 5246 5246
5495 5489 5481 5473 5466 5459 5453 5446 5439 5432 5425 5419 5413 5407 5401 5392 5382 5372 5362 5353 5343 5334 5330 5323 5315 5307 5299 5292 5285 5278 5272 5267 5262 5259 5257 5255 5253 5251 5248 5247 5246 5245 5245
5485 5477 5469 5463 5456 5449 5441 5434 5428 5421 5414 5407 5400 5394 5388 5380 5370 5360 5350 5342 5333 5324 5317 5311 5303 5296 5288 5281 5275 5269 5263 5258 5253 5251 5250 5249 5247 5246 5245 5244 5244 5245 5246
5473 5465 5458 5451 5445 5439 5431 5424 5417 5410 5400 5392 5386 5378 5372 5367 5358 5345 5335 5328 5319 5311 5304 5298 5292 5286 5280 5273 5267 5261 5256 5251 5247 5245 5244 5243 5243 5242 5242 5242 5241 5242 5243
5461 5454 5447 5440 5433 5427 5421 5415 5407 5396 5389 5379 5370 5362 5357 5350 5342 5333 5323 5314 5305 5297 5290 5286 5281 5275 5269 5264 5258 5254 5249 5245 5242 5240 5239 5238 5238 5238 5238 5239 5239 5239 5241
5449 5442 5435 5428 5422 5415 5408 5402 5397 5391 5380 5369 5360 5350 5342 5334 5326 5318 5309 5301 5293 5285 5278 5274 5269 5264 5259 5254 5249 5245 5242 5239 5236 5234 5234 5234 5234 5234 5235 5236 5237 5238 5239
5435 5428 5421 5416 5409 5402 5395 5388 5382 5376 5370 5362 5350 5339 5329 5320 5312 5303 5294 5288 5283 5275 5268 5263 5258 5254 5250 5246 5242 5239 5237 5234 5232 5231 5230 5230 5230 5231 5232 5234 5235 5235 5236
5423 5417 5410 5403 5396 5389 5381 5374 5367 5359 5352 5345 5337 5328 5316 5307 5298 5290 5281 5274 5269 5264 5258 5253 5249 5245 5242 5239 5236 5234 5231 5229 5228 5227 5227 5227 5228 5229 5230 5231 5232 5233 5233
5411 5403 5395 5390 5383 5376 5368 5360 5351 5343 5336 5328 5321 5313 5303 5293 5286 5279 5271 5264 5259 5254 5249 5245 5242 5239 5237 5234 5231 5229 5227 5226 5225 5224 5225 5225 5226 5227 5228 5229 5229 5230 5232
5399 5392 5383 5376 5370 5362 5353 5345 5336 5328 5320 5313 5306 5297 5287 5279 5273 5267 5260 5255 5250 5246 5242 5239 5236 5234 5232 5230 5227 5225 5224 5223 5223 5222 5222 5223 5224 5225 5226 5227 5228 5228 5229
5386 5380 5372 5365 5357 5349 5340 5331 5322 5314 5307 5299 5293 5284 5275 5266 5261 5255 5250 5246 5242 5238 5235 5233 5231 5230 5228 5226 5224 5222 5221 5221 5221 5220 5220 5221 5222 5223 5224 5225 5226 5227 5228
5374 5367 5360 5352 5344 5336 5327 5318 5309 5301 5293 5286 5278 5270 5263 5257 5251 5246 5242 5238 5235 5232 5230 5228 5227 5226 5224 5222 5220 5219 5218 5219 5218 5218 5218 5219 5220 5221 5223 5224 5225 5225 5226
5362 5355 5348 5340 5332 5323 5315 5306 5297 5289 5280 5272 5265 5259 5253 5248 5243 5239 5235 5231 5229 5227 5225 5224 5223 5222 5221 5219 5218 5218 5217 5217 5216 5216 5216 5218 5219 5220 5222 5223 5224 5225 5225
5351 5343 5335 5327 5318 5309 5301 5292 5284 5276 5268 5261 5255 5250 5245 5241 5236 5232 5229 5226 5224 5223 5222 5221 5220 5220 5219 5218 5217 5217 5217 5217 5217 5217 5218 5219 5220 5221 5222 5223 5224 5225 5225
5338 5329 5321 5312 5303 5294 5286 5279 5271 5264 5257 5251 5246 5242 5238 5234 5230 5227 5225 5222 5221 5220 5220 5219 5219 5219 5218 5218 5218 5218 5218 5219 5219 5219 5220 5221 5223 5224 5225 5225 5225 5226 5226